Terminal Aerodrome Forecast
Issued by NWS Omaha/Valley, NE

Home | Current Version | Previous Version | Graphics & Text | Print | Product List | Glossary On
Versions: 1 2 3 4 5 6 7 8 9 10 11 12 13 14 15 16 17 18 19 20 21 22 23 24 25 26 27 28 29
000
FTUS43 KOAX 140201 AAA
TAFOFK
TAF AMD
KOFK 140201Z 1402/1424 16007KT P6SM VCTS SCT030CB BKN090
      TEMPO 1403/1405 VRB15G25KT 4SM TSRA BKN030CB
     FM140700 20007KT P6SM BKN050
      TEMPO 1410/1414 BKN015
     FM141500 14004KT P6SM BKN020
     FM141700 14004KT P6SM SCT025 SCT100=

USA.gov is the U.S. government's official web portal to all federal, state and local government web resources and services.